Location: eljas
(40.1958°N, 6.8661°W)
Time: 11:33:34
(UTC+01:00)

Daily predictions for brighter satellites

Satellite Brightness Start Highest point End
(mag) Time Altitude Azimuth Time Altitude Azimuth Time Altitude Azimuth
CZ-3A R/B 4.1 18:14:41 10° NW 18:29:18 80° SW 18:35:05 10° SE
Aureole 1 Rocket 4.3 18:25:43 10° N 18:31:16 46° ENE 18:38:16 10° SE
Okean 3 3.9 18:28:15 10° SSW 18:32:23 67° W 18:36:35 10° N
Cosmos 1666 4.1 18:31:10 10° NNE 18:33:49 18° ENE 18:36:26 10° ESE
USA 215 3.4 18:28:09 10° SE 18:34:42 83° SW 18:41:16 10° NW
Hubble Space Telescope 3.3 18:39:55 10° SSW 18:42:07 14° S 18:44:19 10° SE
Cosmos 1607 4.0 18:38:28 10° NNW 18:44:59 73° ENE 18:51:24 10° SE
Cosmos 2369 Rocket 4.4 18:41:49 10° W 18:45:39 19° NW 18:49:32 10° N
CSL-04 Rocket 3.7 18:42:30 10° SSE 18:47:53 82° ENE 18:53:24 10° NNW
USA 161 3.8 18:45:46 10° NNW 18:48:09 25° WNW 18:50:38 10° SW
Cosmos 2279 Rocket 4.1 18:42:24 10° S 18:48:31 60° E 18:54:40 10° NNE
Atlas Centaur 2 3.6 18:44:58 10° SW 18:49:07 24° S 18:52:38 10° SE
NOSS 2-3 (C) 4.1 18:49:33 10° SW 18:54:10 69° NW 18:59:32 10° NNE
ISS -2.2 18:54:49 10° NNW 18:57:19 20° NNE 18:58:42 16° NE
BREEZE-M DEB (TANK) 4.0 18:56:37 10° NW 18:58:31 20° N 19:00:45 13° NE
BREEZE-M DEB (TANK) 2.5 18:58:02 10° NW 19:00:38 62° NNE 19:07:58 10° ESE
EO 1 Del DPAF 4.4 18:58:22 13° NE 19:00:57 24° E 19:04:05 10° SSE
Cosmos 1455 Rocket 3.5 18:57:51 10° N 19:02:03 40° ENE 19:06:11 10° SSE
Abrixas rocket 2.3 18:59:01 10° WSW 19:02:15 68° NNW 19:04:28 18° NE
METEOR-M 4.3 19:00:18 10° SE 19:05:26 50° ENE 19:10:35 10° N
Cosmos 1544 Rocket 3.7 19:01:31 10° N 19:05:46 47° E 19:09:57 10° SSE
Meteor 1-28 Rocket 3.1 19:02:28 10° NNE 19:06:14 90° WSW 19:09:59 10° SSW
YAOGAN 1 2.6 19:03:47 10° SSE 19:07:59 55° ENE 19:12:14 10° N
Cosmos 1743 2.7 19:04:54 10° N 19:08:43 57° E 19:12:32 10° SSE
CENTAUR R/B 4.5 19:04:42 10° NNW 19:09:13 16° NNE 19:12:07 14° NE
Cosmos 2227 Rocket 2.8 19:06:11 10° N 19:11:20 35° ENE 19:16:27 10° ESE
Cosmos 2219 3.2 19:06:39 10° NNW 19:12:18 89° ENE 19:17:55 10° SSE
Cosmos 1898 Rocket 4.4 19:08:09 10° SW 19:13:09 48° WNW 19:18:15 10° N
Okean 1 4.3 19:11:25 10° SSW 19:15:16 48° W 19:19:08 10° N
Ariane Rocket 3.5 19:10:53 10° S 19:15:53 63° WSW 19:20:55 10° NNW
Delta 2 Rocket 4.5 19:14:23 10° WSW 19:19:44 52° S 19:23:24 17° ESE
Meteor 2-9 Rocket 4.3 19:16:22 10° N 19:21:44 47° ENE 19:26:55 10° SSE
COSMO-SKYMED 1 2.6 19:17:32 10° NNE 19:21:50 57° E 19:26:05 10° S
USA 238 DEB 3.9 19:16:27 10° NNW 19:23:21 51° NE 19:30:19 10° SE
USA 238 3.9 19:16:33 10° NNW 19:23:27 51° NE 19:30:24 10° SE
MTI 3.7 19:21:11 18° NNE 19:23:27 65° E 19:26:41 10° S
Cosmos 1125 Rocket 4.0 19:19:54 10° S 19:24:47 39° ESE 19:27:36 22° NE
USA 116 3.5 19:22:51 10° N 19:26:07 64° WNW 19:29:11 10° SSW
Cosmos 1975 3.9 19:24:40 10° NNW 19:28:33 47° W 19:32:25 10° SSW
Cosmos 1937 Rocket 4.4 19:24:45 10° SW 19:29:44 47° WNW 19:34:44 10° N
Cosmos 1655 Rocket 4.3 19:23:26 10° NNW 19:29:47 72° W 19:36:08 10° S
DELTA 2 R/B (1) 3.6 19:24:45 10° WSW 19:30:18 73° SSE 19:33:25 27° E
PSLV R/B 4.0 19:28:22 10° SW 19:31:16 35° SSE 19:31:50 32° SE
Landsat 4 3.7 19:27:34 10° NNE 19:31:24 85° W 19:35:13 10° SSW
Cosmos 1980 Rocket 4.1 19:29:06 10° SE 19:29:40 11° ESE 19:29:40 11° ESE
Meteor 1-13 Rocket 4.1 19:27:22 10° S 19:32:54 83° E 19:38:35 10° N
Cosmos 389 Rocket 3.2 19:30:13 10° NNW 19:33:37 52° W 19:37:00 10° S
CZ-4 R/B 2.4 19:30:33 10° S 19:34:15 46° W 19:38:01 10° NNW
Cosmos 1271 Rocket 2.9 19:31:30 10° NNW 19:35:17 73° W 19:39:05 10° S
Cosmos 1048 Rocket 4.4 19:30:14 10° N 19:35:18 40° ENE 19:40:20 10° SE
Cosmos 2297 Rocket 2.3 19:33:24 10° NNW 19:38:53 48° ENE 19:44:19 10° SE
SJ 16-02 1.6 19:35:48 10° S 19:39:59 47° ESE 19:41:00 39° ENE
Meteor 2-4 Rocket 3.5 19:39:33 10° S 19:45:02 82° E 19:50:27 10° NNE
MONITOR-E 4.2 19:44:27 10° S 19:47:28 74° W 19:50:32 10° NNW
Meteor 1-15 Rocket 4.5 19:42:01 10° N 19:47:45 48° ENE 19:53:25 10° SSE
Cosmos 2266 Rocket 3.8 19:44:23 10° N 19:50:29 80° E 19:56:38 10° S
ERS-2 2.4 19:50:47 10° S 19:54:25 67° WSW 19:58:05 10° NNW
NOSS 3-2 (A) 4.2 19:47:46 10° NNW 19:55:02 50° NE 19:59:00 29° ESE
NOSS 3-2 (C) 4.3 19:52:40 10° NNW 19:59:44 43° NE 20:01:47 37° E
Cosmos 1536 Rocket 4.0 19:56:15 10° SSW 20:00:35 61° W 20:03:56 16° N
Cosmos 372 Rocket 3.8 19:55:56 10° SSW 20:01:09 81° ESE 20:03:09 39° NNE
Cosmos 2369 3.6 19:59:37 10° SSW 20:05:16 86° ESE 20:07:41 37° NNE
ATLAS 2AS CENTAUR R/B 3.6 19:58:12 10° SW 20:05:50 56° NW 20:11:57 18° NNE
ALOS 2.5 20:01:23 10° S 20:06:01 69° WSW 20:10:42 10° NNW
Cosmos 1656 3.5 20:00:46 10° SSW 20:06:21 77° ESE 20:08:00 46° NE
Cosmos 2278 3.6 20:01:54 10° SSW 20:07:35 86° ESE 20:09:46 40° NNE
Cosmos 1025 Rocket 4.3 20:06:34 10° S 20:08:45 28° SSE 20:08:45 28° SSE
ATLAS 3B R/B 2.6 20:10:40 10° NW 20:17:19 80° WSW 20:23:11 13° SSE
Cosmos 1244 Rocket 4.4 20:13:20 10° N 20:22:29 30° SSE 20:25:29 10° SSE
SPOT 3 Rocket 4.2 20:14:31 10° S 20:19:34 53° W 20:24:39 10° NNW
Hubble Space Telescope 3.1 20:20:06 10° SW 20:22:37 16° S 20:22:37 16° S
NOSS 3-4 (A) 3.4 20:20:41 10° SSW 20:26:36 61° SE 20:26:36 61° SE
NOSS 3-4 (C) 3.5 20:20:48 10° SSW 20:26:39 60° SE 20:26:39 60° SE
FengYun 1-2 T 4.1 20:21:28 10° SSE 20:27:03 86° ENE 20:32:44 10° NNW
Cosmos 724 4.1 20:25:44 10° NNW 20:31:33 88° WSW 20:32:06 74° SSE
ISS -0.9 20:30:50 10° NW 20:31:24 14° WNW 20:31:24 14° WNW
Thor Agena Rocket 4.0 20:36:47 54° S 20:36:47 54° S 20:40:47 10° SSW
Cosmos 1697 Rocket 2.6 20:30:25 10° SSW 20:35:40 78° SSW 20:35:40 78° SSW
Atlas Centaur 2 3.6 20:34:12 10° WSW 20:36:45 18° SSW 20:36:45 18° SSW
Cosmos 2082 4.2 20:34:50 10° NNW 20:40:20 57° WSW 20:44:19 19° S
BREEZE-M DEB (TANK) 4.0 20:36:21 10° WNW 20:51:33 78° WSW 20:51:33 78° WSW
Cosmos 2227 Rocket 3.7 20:50:18 10° NW 20:55:18 33° WSW 21:00:17 10° SSW
CENTAUR R/B 3.9 20:54:29 10° NNW 20:59:20 36° N 20:59:20 36° N
Cosmos 1980 Rocket 4.0 21:09:26 10° SSW 21:11:31 23° SSW 21:11:31 23° SSW
SJ 16-02 4.1 21:16:07 10° W 21:18:04 15° WNW 21:18:04 15° WNW
Cosmos 2297 Rocket 4.3 21:18:12 10° NW 21:22:33 23° W 21:26:52 10° SSW
